Location: Berlijn
(52.5200°N, 13.4050°E)
Time: 04:42:20
(UTC+02:00)

Envisat - Pass Details

Date: 22 September 2021
Orbit: 764 x 766 km, 98.2° (Epoch: 23 October)

Event Time Altitude Azimuth Distance (km) Brightness Sun altitude
Rises 06:06:10 0° 17° (NNE) 3,246 6.7 -7.8°
Reaches altitude 10° 06:08:32 10° 22° (NNE) 2,315 6.0 -7.5°
Maximum altitude 06:13:33 55° 100° (E) 917 3.9 -6.7°
Drops below altitude 10° 06:18:31 10° 179° (S) 2,297 5.4 -6.0°
Sets 06:20:51 0° 183° (S) 3,218 6.1 -5.6°
